Location: Newark
(34.1333°N, 7.9667°W)
Time: 20:54:24
(UTC+00:00)

VELOX 1 - Visible Passes

Search period start: 04 June 2023 00:00
Search period end: 14 June 2023 00:00
Orbit: 617 x 629 km, 98.4° (Epoch: 04 June)

Date Brightness Start Highest point End Pass type
(mag) Time Alt. Az. Time Alt. Az. Time Alt. Az.
07 Jun ? 20:10:43 10° NNW 20:13:50 19° WNW 20:16:57 10° WSW visible
08 Jun ? 20:30:11 10° NW 20:31:57 12° WNW 20:33:42 10° W visible
12 Jun ? 20:05:51 10° NNW 20:09:14 22° WNW 20:12:36 10° WSW visible
13 Jun ? 20:25:01 10° NW 20:27:20 14° WNW 20:29:38 10° W visible
